Location: Wangen+im+Allg�u
(47.7098°N, 9.8383°E)
Time: 05:59:04

N. Korean satellite - Visible Passes

Search period start: 19 March 2018 00:00
Search period end: 29 March 2018 01:00
Orbit: 460 x 512 km, 97.2° (Epoch: 18 March)

Date Brightness Start Highest point End Pass type
(mag) Time Alt. Az. Time Alt. Az. Time Alt. Az.
19 Mar 9.9 19:09:16 10° SW 19:11:45 17° W 19:14:16 10° NW visible
22 Mar 10.8 05:46:50 10° E 05:47:12 10° E 05:47:35 10° E visible
23 Mar 9.9 19:07:20 10° SW 19:09:56 18° W 19:12:34 10° NW visible
26 Mar 10.6 20:31:28 10° W 20:32:09 10° W 20:32:48 10° WNW visible
